TimeMDT,TemperatureF,Dew PointF,Humidity,Sea Level PressureIn,VisibilityMPH,Wind Direction,Wind SpeedMPH,Gust SpeedMPH,PrecipitationIn,Events,Conditions,WindDirDegrees,DateUTC
12:15 AM,50.0,32.0,50,30.03,10.0,North,4.6,-,N/A,,Clear,360,2013-05-22 06:15:00
12:35 AM,50.0,32.0,50,30.03,10.0,NNW,5.8,-,N/A,,Clear,340,2013-05-22 06:35:00
12:55 AM,50.0,32.0,50,30.03,10.0,NNW,4.6,-,N/A,,Clear,330,2013-05-22 06:55:00
1:15 AM,50.0,32.0,50,30.03,10.0,NNW,5.8,-,N/A,,Clear,330,2013-05-22 07:15:00
1:35 AM,50.0,32.0,50,30.01,10.0,NW,6.9,-,N/A,,Clear,320,2013-05-22 07:35:00
1:55 AM,50.0,32.0,50,30.01,10.0,NW,5.8,-,N/A,,Clear,320,2013-05-22 07:55:00
2:15 AM,50.0,32.0,50,30.00,10.0,NW,3.5,-,N/A,,Clear,310,2013-05-22 08:15:00
2:35 AM,46.4,32.0,57,29.99,10.0,West,4.6,-,N/A,,Clear,280,2013-05-22 08:35:00
2:55 AM,46.4,32.0,57,29.99,10.0,West,4.6,-,N/A,,Clear,280,2013-05-22 08:55:00
3:15 AM,46.4,32.0,57,29.98,10.0,West,3.5,-,N/A,,Clear,280,2013-05-22 09:15:00
3:34 AM,48.2,32.0,54,29.97,10.0,West,3.5,-,N/A,,Clear,280,2013-05-22 09:34:00
3:55 AM,50.0,30.2,47,29.97,10.0,Calm,Calm,-,N/A,,Clear,0,2013-05-22 09:55:00
4:15 AM,46.4,32.0,57,29.97,10.0,Calm,Calm,-,N/A,,Clear,0,2013-05-22 10:15:00
4:35 AM,46.4,32.0,57,29.97,10.0,West,4.6,-,N/A,,Scattered Clouds,270,2013-05-22 10:35:00
4:55 AM,46.4,32.0,57,29.97,10.0,West,3.5,-,N/A,,Scattered Clouds,260,2013-05-22 10:55:00
5:14 AM,46.4,32.0,57,29.97,10.0,WNW,3.5,-,N/A,,Scattered Clouds,290,2013-05-22 11:14:00
5:35 AM,46.4,32.0,57,29.95,10.0,Calm,Calm,-,N/A,,Scattered Clouds,0,2013-05-22 11:35:00
5:47 AM,48.2,32.0,54,29.95,60.0,Calm,Calm,-,N/A,,Scattered Clouds,0,2013-05-22 11:47:00
5:55 AM,46.4,32.0,57,29.96,10.0,Calm,Calm,-,N/A,,Clear,0,2013-05-22 11:55:00
6:47 AM,50.0,35.6,58,29.97,60.0,Calm,Calm,-,N/A,,Scattered Clouds,0,2013-05-22 12:47:00
7:47 AM,50.0,33.8,54,29.99,60.0,NNW,4.6,-,N/A,,Scattered Clouds,330,2013-05-22 13:47:00
8:47 AM,55.4,33.8,44,29.99,60.0,Calm,Calm,-,N/A,,Scattered Clouds,0,2013-05-22 14:47:00
9:53 AM,57.2,32.0,38,29.99,70.0,Calm,Calm,-,N/A,,Partly Cloudy,0,2013-05-22 15:53:00
10:46 AM,62.6,32.0,32,29.98,70.0,Variable,3.5,-,N/A,,Partly Cloudy,0,2013-05-22 16:46:00
11:48 AM,66.2,33.8,30,29.97,40.0,North,4.6,-,N/A,,Partly Cloudy,350,2013-05-22 17:48:00
12:47 PM,68.0,32.0,26,29.96,40.0,Variable,4.6,-,N/A,,Partly Cloudy,0,2013-05-22 18:47:00
1:46 PM,68.0,32.0,26,29.95,40.0,Variable,3.5,-,N/A,,Mostly Cloudy,0,2013-05-22 19:46:00
2:51 PM,73.4,32.0,22,29.94,40.0,North,8.1,-,N/A,,Scattered Clouds,350,2013-05-22 20:51:00
3:50 PM,75.2,30.2,19,29.92,40.0,Variable,5.8,-,N/A,,Scattered Clouds,0,2013-05-22 21:50:00
4:46 PM,73.4,30.2,20,29.92,35.0,Variable,5.8,-,N/A,,Scattered Clouds,0,2013-05-22 22:46:00
5:53 PM,75.2,28.4,18,29.92,25.0,NE,13.8,-,N/A,,Scattered Clouds,40,2013-05-22 23:53:00
6:50 PM,71.6,33.8,25,29.94,50.0,NE,13.8,20.7,N/A,,Mostly Cloudy,40,2013-05-23 00:50:00
7:49 PM,66.2,37.4,35,29.98,40.0,NE,15.0,25.3,N/A,Rain,Light Rain Showers,40,2013-05-23 01:49:00
8:15 PM,62.6,44.6,52,30.02,25.0,East,11.5,-,N/A,Rain-Thunderstorm,Thunderstorms and Rain,80,2013-05-23 02:15:00
8:45 PM,59.0,48.2,67,30.03,20.0,NE,5.8,-,N/A,Rain-Thunderstorm,Light Thunderstorms and Rain,50,2013-05-23 02:45:00
9:50 PM,59.0,48.2,67,30.09,20.0,Variable,3.5,-,N/A,,Overcast,0,2013-05-23 03:50:00
11:15 PM,55.4,44.6,67,30.10,10.0,East,4.6,-,N/A,,Scattered Clouds,90,2013-05-23 05:15:00
11:35 PM,53.6,44.6,72,30.11,10.0,Calm,Calm,-,N/A,,Clear,0,2013-05-23 05:35:00
11:55 PM,53.6,44.6,72,30.12,10.0,ESE,3.5,-,N/A,,Clear,110,2013-05-23 05:55:00